Vertical_Velocity
-2 -11 6 15 -8 -6 -9 -6 -1 -5 3 -21 -4 -5 2 -3 3 1 -3 2 -1 1 1 -4 2 -0 -0 -2 -0 -1 -1 0 1 1 -1 0 -2 1 2 -3 -3 -1 -2 -0 -0 -1 -1 -1 -1
1 8 -8 9 2 -0 -7 2 -8 2 10 11 -24 2 -1 0 3 2 -1 1 -2 -2 1 0 2 -2 -3 2 -1 2 -2 2 -0 -1 -1 2 -5 1 -2 -2 -0 -1 -2 -2 -2 -2 -2 -1 -1
5 3 4 6 -2 -4 -2 -10 3 9 -3 -1 -5 5 3 -10 -1 0 2 -0 -3 -1 1 -1 0 -2 -2 2 -2 -0 1 3 -4 0 -2 0 1 0 -2 -0 4 -1 -1 -2 -2 -2 -1 -1 -0
-26 3 11 0 -7 -1 0 -25 7 -7 6 6 -5 -1 2 4 0 1 1 0 2 -1 -1 0 -2 -1 2 -0 -0 -2 -2 -0 -2 -3 1 -0 -0 2 4 -0 1 2 -1 -3 -2 -2 -1 0 0
12 6 4 -1 -4 -2 -12 -5 -2 -25 -3 -2 -6 -11 -2 5 2 7 2 5 -2 0 -1 -3 -0 0 1 1 1 -2 0 -0 -1 1 -2 2 -3 -2 6 -2 -0 3 -1 -2 -2 -3 -2 -1 -1
1 0 -2 -9 -7 2 3 -21 18 -1 -6 14 -5 1 3 7 2 -3 0 4 -1 -2 -2 -1 0 -1 -1 -1 1 -2 1 -3 1 2 -3 1 -3 -4 -1 -0 1 -0 -1 -2 -3 -2 -1 -1 0
-3 3 -12 -4 -6 9 -1 -7 -7 11 17 -2 -17 -3 -5 6 -0 0 8 -1 -1 -1 0 -1 1 1 -0 1 0 -6 3 -1 -1 1 -4 -2 1 -4 4 2 -0 -1 -1 -4 -2 -4 -2 -2 -1
0 6 1 -5 -2 -18 9 7 2 -14 -0 5 11 -24 -12 15 5 8 0 -3 0 0 -2 3 2 -3 3 1 -2 -1 -2 -2 -1 -2 -3 3 -4 -3 3 0 1 -1 -2 -2 -1 -2 0 0 0
12 8 -8 -15 0 -7 18 -38 -2 3 -2 10 3 1 -13 1 -0 -5 1 -0 2 -1 -1 -1 -2 5 3 -4 -4 5 -2 -4 4 -3 3 2 -2 -4 2 1 2 -1 -1 -1 -1 -2 -1 1 1
3 -6 -19 -0 1 -11 -7 11 2 -33 12 2 -7 2 -0 8 4 -1 -1 2 5 2 2 -1 3 2 3 -3 4 -5 2 1 3 -0 -4 0 1 -4 3 2 2 1 -1 -1 -2 -1 0 1 0
-3 -32 13 -5 3 16 1 3 9 4 -15 -4 -2 14 -2 0 1 5 4 2 4 -2 -4 4 1 7 -3 5 -1 -3 3 -1 1 2 -2 -2 -0 -3 3 1 0 0 -4 -2 -1 -1 -1 -1 -0
-8 -17 4 1 7 5 -3 11 1 -4 -9 1 -1 8 -1 -0 4 5 1 1 -1 -0 8 -2 1 -5 3 4 -2 -0 6 -2 2 -0 5 -1 -1 -1 1 -1 -1 -2 -3 -1 -2 -2 -0 1 -1
-1 -24 7 10 5 5 7 -18 3 -2 2 -4 3 -2 0 2 2 5 1 -4 1 3 -5 6 0 -5 5 2 -3 1 5 -2 3 -2 2 -1 1 -1 -1 -0 -1 -1 -1 -1 -2 -1 -1 -2 -2
-2 18 -6 15 2 6 -1 -9 16 1 5 -4 -1 -3 -1 -1 2 5 -10 4 6 -3 2 5 -2 -4 10 -0 -1 0 -1 0 1 -1 -1 1 1 -1 -2 -1 -1 -2 -1 0 -2 -2 1 -2 -3
-2 1 7 -12 -0 -4 16 -16 -23 -9 1 1 3 3 -5 -4 3 -8 4 -4 6 5 2 8 2 -9 10 7 -4 -1 -4 6 -1 -2 -0 1 -1 -1 -1 0 -2 -2 -1 -0 -2 -0 -0 -1 -2
1 14 6 -1 -2 -3 19 -56 3 9 1 -2 4 -1 2 -3 -5 4 1 1 1 2 7 -3 -5 4 4 -1 -2 1 4 6 1 -3 -0 0 0 0 -0 -1 -2 -2 -0 -1 -2 0 -1 -0 1
2 -14 -6 35 2 3 4 -10 4 8 -0 2 3 -3 -2 8 1 -4 -3 2 2 5 6 -9 1 3 1 -1 4 -5 5 0 2 -3 -1 2 1 -0 -1 -2 -1 -1 -1 -2 1 -0 0 1 -0
-2 6 3 0 -8 4 6 -36 13 1 -5 6 3 7 5 1 0 -1 8 1 -1 1 -1 3 3 2 1 3 -5 1 0 0 -1 -1 2 1 0 -0 -2 -1 -2 -1 -1 -0 0 -1 1 0 -0
4 2 -4 -2 -2 -4 -2 -7 4 8 -3 -4 -4 -2 -1 2 13 2 6 2 -6 0 1 2 0 2 -3 -7 -4 -2 1 0 0 1 2 1 1 -2 -2 -1 -1 -1 -2 1 -0 0 -1 -4 -2
7 9 2 7 2 6 3 -20 -5 -2 5 6 6 3 2 5 -8 -8 1 -1 -4 3 6 1 1 3 0 -4 3 -3 3 2 2 2 2 -1 -1 -1 -1 -3 -2 -1 0 -0 1 -1 -1 -1 -2
-2 -19 7 5 3 4 7 -18 -17 -6 -2 -1 -2 -1 0 -8 -2 4 -2 2 5 -1 -1 -1 2 6 1 0 -4 -2 -0 -3 -6 -3 -1 2 -1 -1 -2 -2 -1 -0 -1 -0 -1 -0 -1 -4 -4
1 38 34 9 8 -8 9 -16 -19 -7 -5 -6 -10 -3 -4 0 3 3 -2 -4 -3 2 2 2 1 4 -0 -2 -2 -2 5 5 8 6 5 1 -3 -2 -1 -0 -0 -0 -0 0 -1 -2 -3 -3 -2
-4 11 -6 0 2 7 1 5 -33 -9 -8 -14 -8 -5 -6 -1 -1 0 0 5 11 1 4 7 3 -0 -4 1 0 3 1 3 4 3 -1 -2 -0 1 -0 1 0 0 -1 -1 -0 -1 -3 -1 -1
1 2 9 9 12 6 -23 7 -40 -15 -21 -6 -2 -6 -5 -2 -3 1 7 6 8 5 2 1 -2 3 -2 2 1 2 2 4 3 1 0 0 1 1 1 1 -0 0 -0 0 1 -2 -2 -0 -3
8 14 2 3 5 -18 15 19 -65 6 -6 -6 -9 -3 -1 3 2 4 1 2 3 0 5 0 -2 1 2 4 0 2 2 3 4 3 1 1 2 2 0 -0 0 1 0 -0 -1 -3 -1 -1 -3
-5 -4 -10 -6 -3 -8 -2 -4 -50 1 -11 -7 -10 -8 1 2 1 -0 3 3 1 2 1 2 1 3 3 6 5 2 3 3 3 2 1 1 2 -1 2 0 2 0 1 0 -1 -1 -1 -2 -2
-13 17 -14 2 1 1 -5 -0 -23 -8 -0 -10 -7 -7 3 -1 -0 3 1 1 1 -0 2 6 4 2 3 7 4 2 4 0 3 2 2 0 -5 -0 0 -1 0 1 1 0 -0 -1 -2 -2 -0
2 -15 12 4 -0 -1 -1 0 -8 -14 -7 4 -1 1 6 4 -2 0 3 3 3 3 4 1 1 2 9 8 6 8 6 3 2 1 0 0 1 0 -1 -1 1 2 1 -1 -0 -2 -2 -1 -3
7 17 12 0 -5 -4 -1 -13 -0 1 3 4 12 10 7 5 -2 -0 -2 -1 0 1 4 3 1 0 0 -2 2 6 7 1 0 0 0 1 0 -1 -0 0 1 1 -1 -1 -2 -2 -2 -1 -2
3 -9 -11 4 1 -12 3 -25 9 10 6 4 8 5 -0 3 4 2 -1 3 3 3 2 2 0 3 4 3 2 5 5 -1 2 4 0 0 1 0 1 2 1 0 -1 -1 -1 -1 -1 -1 -3
Height
3100 3100 3101 3100 3106 3104 3103 3102 3101 3103 3106 3107 3108 3113 3114 3118 3121 3125 3122 3122 3124 3127 3130 3132 3133 3135 3137 3138 3140 3141 3142 3143 3145 3146 3147 3147 3147 3148 3149 3149 3149 3149 3149 3150 3150 3150 3151 3151 3151
3098 3097 3099 3101 3102 3099 3098 3097 3098 3102 3102 3104 3106 3111 3114 3116 3119 3120 3121 3122 3124 3126 3128 3130 3131 3133 3135 3136 3138 3140 3141 3142 3143 3144 3145 3145 3146 3147 3148 3148 3147 3147 3147 3148 3148 3149 3149 3149 3150
3097 3097 3099 3100 3095 3094 3093 3092 3094 3098 3099 3101 3105 3109 3112 3112 3116 3118 3120 3120 3123 3125 3126 3127 3130 3131 3133 3135 3136 3138 3139 3140 3142 3142 3144 3144 3144 3146 3147 3147 3146 3146 3146 3147 3147 3147 3148 3148 3149
3093 3098 3100 3093 3089 3091 3090 3092 3091 3093 3094 3098 3103 3105 3107 3112 3115 3117 3118 3118 3120 3121 3123 3126 3127 3129 3131 3133 3135 3136 3138 3138 3139 3141 3142 3142 3144 3145 3145 3145 3145 3145 3146 3146 3146 3147 3147 3147 3147
3091 3093 3093 3088 3086 3088 3088 3090 3089 3092 3096 3096 3098 3101 3105 3109 3113 3114 3115 3115 3116 3119 3121 3123 3124 3127 3129 3131 3133 3134 3135 3136 3137 3138 3140 3142 3143 3143 3144 3144 3144 3145 3144 3145 3145 3145 3145 3145 3145
3087 3088 3087 3083 3084 3086 3088 3090 3090 3090 3095 3100 3100 3100 3103 3107 3110 3110 3111 3112 3114 3116 3117 3119 3121 3124 3127 3129 3131 3132 3133 3134 3135 3137 3139 3140 3141 3142 3143 3143 3143 3143 3142 3143 3144 3143 3144 3143 3143
3080 3081 3080 3080 3081 3084 3086 3089 3083 3088 3091 3095 3098 3098 3100 3104 3106 3108 3107 3109 3111 3113 3114 3116 3118 3120 3124 3127 3128 3130 3131 3131 3134 3136 3137 3138 3140 3141 3141 3140 3141 3141 3140 3141 3142 3142 3142 3141 3141
3077 3078 3075 3075 3078 3079 3083 3086 3085 3083 3089 3090 3095 3093 3097 3102 3101 3102 3104 3106 3106 3109 3111 3113 3115 3118 3119 3123 3126 3127 3128 3130 3132 3133 3136 3136 3138 3139 3140 3139 3139 3139 3140 3140 3141 3140 3140 3139 3138
3072 3070 3066 3068 3072 3074 3080 3079 3084 3083 3083 3088 3091 3092 3094 3096 3099 3100 3101 3100 3102 3105 3107 3110 3112 3115 3116 3120 3122 3123 3127 3127 3129 3131 3133 3134 3135 3136 3138 3138 3138 3138 3139 3139 3138 3138 3137 3136 3135
3062 3059 3055 3064 3068 3071 3076 3079 3082 3081 3080 3083 3087 3088 3091 3092 3093 3095 3096 3097 3099 3101 3104 3106 3109 3113 3113 3114 3119 3122 3124 3124 3126 3128 3130 3132 3134 3134 3136 3136 3135 3136 3136 3135 3135 3135 3133 3132 3132
3054 3047 3054 3057 3064 3067 3071 3070 3074 3075 3076 3077 3082 3084 3087 3088 3089 3091 3093 3095 3096 3098 3098 3102 3106 3107 3110 3113 3115 3117 3120 3121 3123 3125 3127 3129 3131 3132 3133 3133 3133 3133 3133 3133 3132 3130 3129 3129 3127
3046 3045 3050 3052 3057 3059 3061 3065 3063 3066 3069 3074 3076 3079 3081 3083 3084 3087 3089 3090 3091 3094 3095 3097 3100 3104 3108 3109 3110 3114 3116 3117 3120 3122 3124 3125 3128 3128 3129 3129 3130 3130 3130 3128 3127 3126 3126 3125 3124
3035 3040 3044 3047 3050 3051 3053 3057 3057 3055 3064 3067 3068 3070 3073 3076 3078 3082 3083 3084 3085 3088 3092 3094 3096 3100 3103 3104 3106 3110 3112 3114 3116 3118 3120 3122 3123 3124 3125 3125 3126 3126 3125 3124 3124 3123 3122 3121 3120
3031 3034 3034 3036 3041 3043 3046 3048 3049 3048 3058 3059 3060 3063 3065 3068 3071 3075 3076 3078 3082 3084 3087 3089 3091 3096 3098 3099 3102 3107 3108 3110 3111 3114 3116 3118 3119 3120 3120 3121 3122 3122 3121 3121 3120 3119 3118 3117 3115
3022 3024 3026 3026 3032 3034 3040 3034 3026 3044 3049 3051 3052 3055 3057 3061 3062 3066 3071 3073 3078 3080 3081 3083 3086 3090 3092 3094 3097 3102 3103 3105 3106 3110 3112 3114 3115 3116 3115 3116 3117 3116 3116 3117 3116 3115 3115 3113 3110
3011 3014 3011 3015 3023 3026 3031 3011 3028 3038 3041 3042 3044 3048 3050 3052 3056 3059 3062 3067 3071 3071 3074 3077 3081 3085 3086 3090 3093 3097 3100 3100 3101 3105 3108 3109 3110 3110 3111 3112 3112 3112 3112 3111 3110 3110 3110 3108 3106
2996 2992 2997 3005 3013 3021 3020 3009 3021 3028 3032 3033 3036 3039 3042 3045 3046 3051 3055 3058 3062 3066 3068 3072 3074 3078 3081 3084 3087 3091 3093 3094 3097 3100 3102 3104 3105 3105 3107 3107 3107 3107 3106 3106 3105 3106 3105 3103 3100
2975 2983 2989 2993 3002 3009 3010 3004 3011 3019 3023 3025 3029 3032 3034 3035 3039 3045 3046 3051 3056 3058 3061 3065 3067 3069 3074 3078 3082 3084 3085 3088 3092 3095 3097 3098 3099 3101 3102 3102 3102 3102 3101 3100 3100 3100 3098 3096 3095
2975 2978 2981 2986 2993 3000 2999 3001 3004 3013 3015 3016 3020 3023 3026 3027 3035 3034 3037 3041 3044 3048 3052 3056 3058 3062 3066 3069 3074 3076 3080 3084 3088 3089 3092 3093 3095 3096 3096 3096 3096 3096 3095 3094 3094 3093 3091 3089 3087
2968 2970 2970 2978 2984 2989 2991 2990 2994 3001 3000 3007 3011 3013 3015 3020 3022 3026 3027 3029 3034 3039 3045 3048 3051 3055 3058 3063 3068 3071 3075 3079 3082 3083 3085 3087 3089 3090 3090 3090 3090 3090 3089 3088 3088 3086 3084 3082 3080
2951 2953 2964 2971 2978 2982 2984 2981 2983 2987 2989 2994 2997 3002 3005 3009 3014 3017 3019 3022 3026 3030 3035 3040 3043 3048 3052 3057 3059 3063 3067 3070 3071 3075 3079 3082 3084 3084 3084 3084 3084 3083 3083 3082 3081 3079 3077 3075 3071
2944 2944 2963 2970 2976 2972 2979 2969 2972 2975 2977 2981 2987 2991 2997 3002 3005 3008 3012 3014 3018 3024 3028 3032 3035 3040 3043 3048 3052 3056 3060 3064 3069 3073 3075 3076 3077 3077 3078 3078 3077 3077 3077 3076 3075 3073 3071 3068 3064
2940 2954 2960 2966 2971 2975 2972 2973 2948 2966 2963 2969 2978 2983 2987 2993 2997 3000 3003 3008 3013 3015 3020 3025 3028 3032 3035 3040 3043 3049 3053 3058 3062 3065 3066 3067 3069 3071 3071 3071 3072 3072 3071 3071 3069 3067 3065 3061 3057
2944 2953 2957 2963 2968 2970 2953 2962 2943 2951 2951 2960 2970 2974 2978 2984 2987 2991 2996 2999 3002 3006 3009 3014 3018 3022 3026 3031 3036 3041 3045 3051 3054 3056 3058 3061 3063 3064 3065 3066 3066 3066 3066 3065 3064 3061 3058 3054 3050
2936 2944 2953 2963 2966 2946 2941 2952 2930 2940 2946 2953 2959 2965 2970 2975 2977 2980 2982 2986 2990 2993 2999 3003 3006 3011 3017 3022 3027 3033 3038 3043 3047 3049 3052 3054 3056 3058 3059 3060 3060 3060 3060 3059 3057 3055 3052 3048 3043
2922 2933 2933 2943 2948 2933 2939 2925 2920 2930 2940 2944 2949 2955 2957 2962 2965 2968 2971 2975 2979 2985 2989 2993 2997 3003 3008 3013 3020 3025 3030 3034 3038 3040 3044 3046 3048 3050 3053 3054 3055 3055 3054 3053 3051 3048 3045 3041 3037
2916 2923 2924 2930 2931 2934 2923 2920 2926 2928 2930 2935 2940 2945 2949 2955 2958 2960 2963 2966 2971 2975 2980 2985 2990 2994 3000 3007 3012 3017 3022 3026 3030 3033 3036 3038 3040 3044 3047 3048 3049 3048 3047 3046 3044 3041 3038 3034 3029
2906 2914 2926 2927 2930 2928 2917 2915 2917 2917 2920 2927 2930 2934 2941 2944 2947 2950 2953 2957 2962 2966 2971 2976 2981 2986 2993 2999 3005 3011 3015 3019 3022 3024 3027 3030 3034 3037 3040 3042 3042 3041 3040 3039 3037 3034 3031 3027 3022
2899 2903 2911 2915 2918 2920 2916 2913 2916 2918 2920 2924 2928 2930 2933 2936 2939 2941 2944 2948 2953 2957 2961 2965 2970 2976 2982 2989 2997 3003 3008 3011 3014 3017 3020 3023 3027 3030 3033 3034 3035 3035 3034 3033 3030 3027 3023 3020 3015
2889 2895 2902 2904 2911 2914 2911 2908 2911 2914 2917 2922 2925 2926 2928 2929 2931 2934 2938 2941 2946 2950 2954 2958 2962 2969 2975 2982 2989 2996 3001 3004 3007 3011 3014 3017 3020 3023 3025 3028 3028 3028 3028 3026 3023 3020 3017 3013 3008